Weather History for Satu Mare, Romania

Change the Weather History Date:

Saturday, February 16, 2013

  Actual Average Record
Temperature  
Mean Temperature 37 °F -  
Max Temperature 44 °F - - ()
Min Temperature 30 °F - - ()
Degree Days  
Heating Degree Days 28    
Moisture  
Dew Point 33 °F    
Average Humidity 88    
Maximum Humidity 100    
Minimum Humidity 66    
Precipitation  
Precipitation 0.00 in - - ()
Sea Level Pressure  
Sea Level Pressure 30.10 in    
Wind  
Wind Speed 5 mph ()    
Max Wind Speed 9 mph    
Max Gust Speed -    
Visibility 4.8 miles    
Events      
T = Trace of Precipitation, MM = Missing Value Source: Averaged Metar Reports

Daily Weather History Graph

Daily Weather History Graph

Search for Another Location

Airport:

Trip Planner

Search our weather history database for the weather conditions in past years. The results will help you decide how hot, cold, wet, or windy it might be!

Date:

Astronomy

Feb. 16, 2013 Rise Set
Actual Time 7:32 AM EET 5:53 PM EET
Civil Twilight 7:00 AM EET 6:24 PM EET
Nautical Twilight 6:24 AM EET 7:00 PM EET
Astronomical Twilight 5:49 AM EET 7:36 PM EET
Moon 10:03 AM EET (2/16) 12:04 AM EET (2/16)
Length of Visible Light 11h 23m
Length of Day
10h 20m
Waxing Crescent, 36% of the Moon is Illuminated
Feb 16
Waxing Crescent
Feb 17
First Quarter
Feb 25
Full
Mar 4
Last Quarter
Mar 11
New

Hourly Weather History & Observations

Time (EET) Temp. Windchill Dew Point Humidity Pressure Visibility Wind Dir Wind Speed Gust Speed Precip Events Conditions
12:00 AM 33.8 °F 27.7 °F 33.8 °F 100% 30.06 in 3.7 mi SW 6.9 mph - N/A   Mostly Cloudy
1:00 AM 33.8 °F 29.6 °F 32.0 °F 93% 30.06 in - SW 4.6 mph - N/A   Mostly Cloudy
2:00 AM 33.8 °F 27.7 °F 33.8 °F 100% 30.06 in - WSW 6.9 mph - N/A   Mostly Cloudy
3:00 AM 33.8 °F 29.6 °F 32.0 °F 93% 30.06 in - West 4.6 mph - N/A   Overcast
4:00 AM 32.0 °F 27.5 °F 32.0 °F 100% 30.06 in 3.1 mi West 4.6 mph - N/A   Overcast
5:00 AM 32.0 °F 27.5 °F 32.0 °F 100% 30.06 in - WSW 4.6 mph - N/A   Overcast
5:30 AM 32.0 °F 27.5 °F 32.0 °F 100% 30.06 in 2.8 mi West 4.6 mph - N/A   Overcast
6:00 AM 32.0 °F 27.5 °F 30.2 °F 93% 30.09 in - West 4.6 mph - N/A   Overcast
6:30 AM 30.2 °F 25.4 °F 30.2 °F 100% 30.09 in - West 4.6 mph - N/A   Overcast
7:00 AM 30.2 °F - 30.2 °F 100% 30.09 in - SW 2.3 mph - N/A   Partly Cloudy
7:30 AM 30.2 °F 25.4 °F 30.2 °F 100% 30.09 in 1.9 mi WSW 4.6 mph - N/A   Mostly Cloudy
8:00 AM 30.2 °F 25.4 °F 30.2 °F 100% 30.09 in - West 4.6 mph - N/A   Mostly Cloudy
8:30 AM 32.0 °F 27.5 °F 32.0 °F 100% 30.09 in - West 4.6 mph - N/A   Overcast
9:00 AM 32.0 °F 27.5 °F 32.0 °F 100% 30.12 in - WSW 4.6 mph - N/A   Overcast
9:30 AM 32.0 °F 27.5 °F 30.2 °F 93% 30.12 in 2.8 mi West 4.6 mph - N/A   Mostly Cloudy
10:00 AM 32.0 °F - 32.0 °F 100% 30.12 in 3.7 mi Variable 2.3 mph - N/A   Mostly Cloudy
10:30 AM 33.8 °F - 32.0 °F 93% 30.12 in 4.3 mi Variable 2.3 mph - N/A   Scattered Clouds
11:00 AM 35.6 °F 31.7 °F 32.0 °F 87% 30.12 in 5.0 mi SW 4.6 mph - N/A   Scattered Clouds
11:30 AM 37.4 °F 33.8 °F 33.8 °F 87% 30.12 in 6.2 mi WSW 4.6 mph - N/A   Scattered Clouds
12:00 PM 39.2 °F 35.9 °F 33.8 °F 81% 30.12 in 6.2 mi West 4.6 mph - N/A   Partly Cloudy
12:30 PM 41.0 °F 38.0 °F 33.8 °F 76% 30.12 in 6.2 mi West 4.6 mph - N/A   Partly Cloudy
1:00 PM 42.8 °F 38.6 °F 35.6 °F 76% 30.12 in 6.2 mi NW 6.9 mph - N/A   Scattered Clouds
1:30 PM 42.8 °F 40.1 °F 35.6 °F 76% 30.12 in 6.2 mi NNW 4.6 mph - N/A   Scattered Clouds
2:00 PM 44.6 °F 42.2 °F 33.8 °F 66% 30.09 in 6.2 mi West 4.6 mph - N/A   Scattered Clouds
2:30 PM 44.6 °F 42.2 °F 35.6 °F 71% 30.09 in 6.2 mi NNW 4.6 mph - N/A   Partly Cloudy
3:00 PM 44.6 °F 40.7 °F 33.8 °F 66% 30.09 in 6.2 mi NW 6.9 mph - N/A   Partly Cloudy
3:30 PM 44.6 °F 40.7 °F 33.8 °F 66% 30.09 in 6.2 mi NW 6.9 mph - N/A   Partly Cloudy
4:00 PM 44.6 °F 40.7 °F 33.8 °F 66% 30.09 in 6.2 mi NNW 6.9 mph - N/A   Partly Cloudy
4:30 PM 44.6 °F 40.7 °F 33.8 °F 66% 30.09 in - NW 6.9 mph - N/A   Clear
5:00 PM 44.6 °F 40.7 °F 35.6 °F 71% 30.09 in - NW 6.9 mph - N/A   Clear
5:30 PM 42.8 °F 38.6 °F 35.6 °F 76% 30.09 in - NW 6.9 mph - N/A   Clear
6:00 PM 39.2 °F 35.9 °F 35.6 °F 87% 30.12 in - NNW 4.6 mph - N/A   Clear
6:30 PM 37.4 °F 32.1 °F 33.8 °F 87% 30.12 in - NW 6.9 mph - N/A   Clear
7:00 PM 35.6 °F 29.9 °F 33.8 °F 93% 30.12 in - NW 6.9 mph - N/A   Clear
7:30 PM 33.8 °F 27.7 °F 32.0 °F 93% 30.12 in 5.0 mi NNW 6.9 mph - N/A   Unknown
8:00 PM 33.8 °F 27.7 °F 32.0 °F 93% 30.12 in 4.3 mi NW 6.9 mph - N/A   Unknown
8:30 PM 33.8 °F 26.4 °F 30.2 °F 87% 30.12 in 5.0 mi NNW 9.2 mph - N/A   Unknown
9:00 PM 32.0 °F 25.6 °F 30.2 °F 93% 30.12 in 4.3 mi NW 6.9 mph - N/A   Unknown
10:00 PM 30.2 °F 25.4 °F 30.2 °F 100% 30.12 in 3.7 mi West 4.6 mph - N/A   Unknown
11:00 PM 30.2 °F 25.4 °F 28.4 °F 93% 30.15 in 3.7 mi West 4.6 mph - N/A   Mostly Cloudy